Tracking 25656 objects as of 21-May-2022
HD Live streaming from Space Station
objects crossing your sky now

COSMOS 2251 DEB

Track COSMOS 2251 DEB now!
10-day predictions


NORAD ID: 37959
Int'l Code: 1993-036BPJ
Perigee: 692.0 km
Apogee: 791.5 km
Inclination: 74.0 °
Period: 99.5 minutes
Semi major axis: 7112 km
RCS: 0.0013 m2 (small)
Launch date: June 16, 1993
Source: Commonwealth of Independent States (former USSR) (CIS)
Launch site: PLESETSK MISSILE AND SPACE COMPLEX (PKMTR)

Note: This is SATELLITE DEBRIS
aabbcc
Your satellite tracking list
Your tracking list is empty




NASA's NSSDC Master Catalog

Two Line Element Set (TLE):
1 37959U 93036BPJ 22141.03695549  .00002809  00000-0  75221-3 0  9994
2 37959  74.0148 352.1990 0069989  89.7471  61.0844 14.47255599613087
Source of the keplerian elements: AFSPC